Powrót do katalogu

DIRECTV 10

AktywnyŁącznośćGEO
NORAD 31862·PAYLOAD·🇺🇸 United States

Wystrzelony Jul 7, 2007 z Baikonur Cosmodrome

Loading…

TLE

ŚwieżeSource: Space-Track

Epoka: Sep 14, 2026, 12:44 UTC

1 31862U 07032A   26257.53119539 -.00000200  00000-0  00000-0 0  9993
2 31862   0.6352  87.1359 0003735 331.8906 263.9326  0.98339729 46448

Śledź DIRECTV 10 w czasie rzeczywistym z AllMySat

Download on the App Store